| time (UTC) | temp F | wind direction | speed MPH | gust MPH | rain 1hr in | rain 24hr in | rain mn in | humidity % | barometer mb |
| 20260906004013 | 86 | 163 | 4.0 | 13.0 | 0.00 | 0.00 | 0.00 | 18 | 1018.6 |
| 20260906003508 | 87 | 208 | 3.0 | 13.0 | 0.00 | 0.00 | 0.00 | 17 | 1018.8 |
| 20260906003002 | 87 | 134 | 3.0 | 10.0 | 0.00 | 0.00 | 0.00 | 17 | 1018.6 |
| 20260906002456 | 87 | 255 | 4.0 | 10.0 | 0.00 | 0.00 | 0.00 | 17 | 1018.6 |
| 20260906001950 | 87 | 260 | 5.0 | 12.0 | 0.00 | 0.00 | 0.00 | 17 | 1018.9 |
| 20260906001444 | 86 | 166 | 5.0 | 13.0 | 0.00 | 0.00 | 0.00 | 17 | 1018.8 |
| 20260905235420 | 88 | 225 | 5.0 | 13.0 | 0.00 | 0.00 | 0.00 | 17 | 1018.5 |
| 20260905234914 | 87 | 103 | 5.0 | 13.0 | 0.00 | 0.00 | 0.00 | 16 | 1018.4 |
| 20260905233903 | 87 | 115 | 3.0 | 11.0 | 0.00 | 0.00 | 0.00 | 17 | 1018.9 |
| 20260905233357 | 87 | 274 | 3.0 | 11.0 | 0.00 | 0.00 | 0.00 | 17 | 1018.9 |
| 20260905232850 | 86 | 91 | 3.0 | 10.0 | 0.00 | 0.00 | 0.00 | 17 | 1018.8 |
| 20260905232344 | 85 | 258 | 4.0 | 12.0 | 0.00 | 0.00 | 0.00 | 18 | 1018.8 |
| 20260905231838 | 85 | 179 | 4.0 | 12.0 | 0.00 | 0.00 | 0.00 | 17 | 1018.9 |
| 20260905231332 | 86 | 268 | 4.0 | 13.0 | 0.00 | 0.00 | 0.00 | 17 | 1018.8 |
| 20260905230826 | 86 | 292 | 4.0 | 13.0 | 0.00 | 0.00 | 0.00 | 17 | 1018.6 |
| 20260905230319 | 86 | 215 | 4.0 | 11.0 | 0.00 | 0.00 | 0.00 | 17 | 1018.6 |
| 20260905225814 | 87 | 142 | 3.0 | 10.0 | 0.00 | 0.00 | 0.00 | 16 | 1018.6 |
| 20260905225308 | 87 | 226 | 4.0 | 13.0 | 0.00 | 0.00 | 0.00 | 17 | 1018.5 |
| 20260905224803 | 86 | 310 | 6.0 | 14.0 | 0.00 | 0.00 | 0.00 | 18 | 1018.5 |
| 20260905224256 | 86 | 283 | 7.0 | 14.0 | 0.00 | 0.00 | 0.00 | 16 | 1018.6 |
| 20260905223750 | 87 | 264 | 6.0 | 14.0 | 0.00 | 0.00 | 0.00 | 16 | 1018.8 |
| 20260905223244 | 89 | 250 | 4.0 | 11.0 | 0.00 | 0.00 | 0.00 | 15 | 1018.8 |
| 20260905222232 | 88 | 281 | 4.0 | 11.0 | 0.00 | 0.00 | 0.00 | 15 | 1019.0 |
| 20260905221726 | 88 | 238 | 6.0 | 16.0 | 0.00 | 0.00 | 0.00 | 16 | 1018.9 |
| 20260905221221 | 87 | 304 | 8.0 | 17.0 | 0.00 | 0.00 | 0.00 | 15 | 1018.6 |
| 20260905220714 | 88 | 295 | 7.0 | 19.0 | 0.00 | 0.00 | 0.00 | 15 | 1018.6 |
| 20260905220208 | 88 | 239 | 5.0 | 19.0 | 0.00 | 0.00 | 0.00 | 15 | 1018.8 |
| 20260905215156 | 88 | 238 | 6.0 | 18.0 | 0.00 | 0.00 | 0.00 | 15 | 1018.9 |
| 20260905214651 | 87 | 319 | 7.0 | 14.0 | 0.00 | 0.00 | 0.00 | 15 | 1018.6 |
| 20260905214144 | 87 | 223 | 7.0 | 15.0 | 0.00 | 0.00 | 0.00 | 15 | 1019.2 |
| 20260905213638 | 88 | 229 | 5.0 | 16.0 | 0.00 | 0.00 | 0.00 | 14 | 1019.3 |
| 20260905213132 | 88 | 290 | 4.0 | 16.0 | 0.00 | 0.00 | 0.00 | 15 | 1019.3 |
| 20260905212626 | 88 | 278 | 6.0 | 16.0 | 0.00 | 0.00 | 0.00 | 15 | 1019.3 |
| 20260905212121 | 87 | 250 | 8.0 | 21.0 | 0.00 | 0.00 | 0.00 | 15 | 1019.3 |
| 20260905211614 | 88 | 190 | 6.0 | 21.0 | 0.00 | 0.00 | 0.00 | 15 | 1019.1 |
| 20260905211108 | 88 | 225 | 5.0 | 14.0 | 0.00 | 0.00 | 0.00 | 14 | 1019.2 |
| 20260905210602 | 89 | 248 | 4.0 | 13.0 | 0.00 | 0.00 | 0.00 | 14 | 1019.1 |
| 20260905205550 | 88 | 255 | 5.0 | 14.0 | 0.00 | 0.00 | 0.00 | 15 | 1019.3 |
| 20260905204538 | 87 | 257 | 6.0 | 18.0 | 0.00 | 0.00 | 0.00 | 15 | 1019.4 |
| 20260905204032 | 87 | 193 | 5.0 | 17.0 | 0.00 | 0.00 | 0.00 | 15 | 1019.6 |
| 20260905203526 | 87 | 321 | 5.0 | 13.0 | 0.00 | 0.00 | 0.00 | 15 | 1019.4 |
| 20260905203020 | 85 | 240 | 6.0 | 16.0 | 0.00 | 0.00 | 0.00 | 17 | 1019.7 |
| 20260905202515 | 86 | 157 | 7.0 | 18.0 | 0.00 | 0.00 | 0.00 | 16 | 1019.8 |
| 20260905202008 | 87 | 88 | 5.0 | 18.0 | 0.00 | 0.00 | 0.00 | 15 | 1019.7 |
| 20260905201503 | 88 | 253 | 5.0 | 16.0 | 0.00 | 0.00 | 0.00 | 15 | 1019.6 |
| 20260905200956 | 87 | 111 | 6.0 | 14.0 | 0.00 | 0.00 | 0.00 | 15 | 1019.7 |
| 20260905195944 | 86 | 214 | 6.0 | 16.0 | 0.00 | 0.00 | 0.00 | 16 | 1019.8 |
| 20260905195438 | 85 | 103 | 6.0 | 16.0 | 0.00 | 0.00 | 0.00 | 17 | 1020.0 |
| 20260905194933 | 86 | 203 | 4.0 | 13.0 | 0.00 | 0.00 | 0.00 | 16 | 1020.0 |
| 20260905194426 | 86 | 87 | 3.0 | 12.0 | 0.00 | 0.00 | 0.00 | 16 | 1019.9 |
| 20260905193414 | 86 | 217 | 3.0 | 11.0 | 0.00 | 0.00 | 0.00 | 16 | 1020.0 |
| 20260905192908 | 87 | 229 | 4.0 | 18.0 | 0.00 | 0.00 | 0.00 | 16 | 1020.0 |
| 20260905192402 | 87 | 177 | 5.0 | 18.0 | 0.00 | 0.00 | 0.00 | 16 | 1020.0 |
| 20260905191856 | 88 | 234 | 5.0 | 18.0 | 0.00 | 0.00 | 0.00 | 15 | 1020.2 |
| 20260905191351 | 87 | 270 | 5.0 | 14.0 | 0.00 | 0.00 | 0.00 | 15 | 1020.0 |
| 20260905190844 | 87 | 232 | 5.0 | 14.0 | 0.00 | 0.00 | 0.00 | 15 | 1020.0 |
| 20260905190338 | 87 | 188 | 5.0 | 16.0 | 0.00 | 0.00 | 0.00 | 15 | 1020.2 |
| 20260905185832 | 87 | 143 | 4.0 | 16.0 | 0.00 | 0.00 | 0.00 | 15 | 1020.2 |
| 20260905185326 | 86 | 234 | 5.0 | 17.0 | 0.00 | 0.00 | 0.00 | 16 | 1020.3 |
| 20260905184820 | 86 | 124 | 6.0 | 17.0 | 0.00 | 0.00 | 0.00 | 16 | 1020.3 |
| 20260905184314 | 86 | 211 | 5.0 | 13.0 | 0.00 | 0.00 | 0.00 | 15 | 1020.2 |
| 20260905183808 | 85 | 231 | 5.0 | 13.0 | 0.00 | 0.00 | 0.00 | 15 | 1020.3 |
| 20260905183309 | 85 | 181 | 5.0 | 17.0 | 0.00 | 0.00 | 0.00 | 15 | 1020.5 |
| 20260905181809 | 85 | 72 | 5.0 | 18.0 | 0.00 | 0.00 | 0.00 | 15 | 1020.5 |
| 20260905181311 | 85 | 86 | 4.0 | 18.0 | 0.00 | 0.00 | 0.00 | 15 | 1020.6 |
| 20260905180809 | 85 | 334 | 3.0 | 10.0 | 0.00 | 0.00 | 0.00 | 15 | 1020.5 |
| 20260905180310 | 85 | 156 | 3.0 | 11.0 | 0.00 | 0.00 | 0.00 | 15 | 1020.5 |
| 20260905175812 | 84 | 56 | 4.0 | 12.0 | 0.00 | 0.00 | 0.00 | 15 | 1020.6 |
| 20260905175312 | 84 | 108 | 5.0 | 17.0 | 0.00 | 0.00 | 0.00 | 15 | 1020.6 |
| 20260905174806 | 83 | 167 | 6.0 | 17.0 | 0.00 | 0.00 | 0.00 | 17 | 1020.5 |
| 20260905174303 | 83 | 124 | 6.0 | 14.0 | 0.00 | 0.00 | 0.00 | 16 | 1020.5 |
| 20260905173803 | 83 | 93 | 6.0 | 13.0 | 0.00 | 0.00 | 0.00 | 16 | 1020.5 |
| 20260905173304 | 83 | 173 | 6.0 | 14.0 | 0.00 | 0.00 | 0.00 | 16 | 1020.6 |
| 20260905172804 | 83 | 158 | 6.0 | 14.0 | 0.00 | 0.00 | 0.00 | 16 | 1020.6 |
| 20260905172307 | 83 | 158 | 6.0 | 14.0 | 0.00 | 0.00 | 0.00 | 16 | 1020.5 |
| 20260905171805 | 83 | 165 | 6.0 | 14.0 | 0.00 | 0.00 | 0.00 | 16 | 1020.3 |
| 20260905171306 | 83 | 196 | 5.0 | 12.0 | 0.00 | 0.00 | 0.00 | 16 | 1020.5 |
| 20260905170805 | 83 | 169 | 5.0 | 12.0 | 0.00 | 0.00 | 0.00 | 15 | 1020.3 |
| 20260905170306 | 82 | 198 | 5.0 | 11.0 | 0.00 | 0.00 | 0.00 | 15 | 1020.3 |
| 20260905165803 | 82 | 98 | 5.0 | 11.0 | 0.00 | 0.00 | 0.00 | 16 | 1020.3 |
| 20260905165306 | 81 | 93 | 6.0 | 13.0 | 0.00 | 0.00 | 0.00 | 15 | 1020.2 |
| 20260905164803 | 81 | 179 | 6.0 | 16.0 | 0.00 | 0.00 | 0.00 | 15 | 1020.2 |
| 20260905164302 | 81 | 157 | 5.0 | 16.0 | 0.00 | 0.00 | 0.00 | 15 | 1020.2 |
| 20260905163804 | 81 | 114 | 5.0 | 18.0 | 0.00 | 0.00 | 0.00 | 15 | 1020.2 |
| 20260905163302 | 80 | 179 | 5.0 | 18.0 | 0.00 | 0.00 | 0.00 | 14 | 1020.2 |
| 20260905162804 | 81 | 82 | 3.0 | 11.0 | 0.00 | 0.00 | 0.00 | 15 | 1020.1 |
| 20260905162306 | 81 | 125 | 3.0 | 11.0 | 0.00 | 0.00 | 0.00 | 14 | 1020.1 |
| 20260905161804 | 80 | 284 | 4.0 | 12.0 | 0.00 | 0.00 | 0.00 | 16 | 1020.0 |
| 20260905161302 | 80 | 124 | 4.0 | 12.0 | 0.00 | 0.00 | 0.00 | 16 | 1019.9 |
| 20260905160803 | 80 | 30 | 4.0 | 12.0 | 0.00 | 0.00 | 0.00 | 17 | 1020.0 |
| 20260905155801 | 80 | 140 | 4.0 | 10.0 | 0.00 | 0.00 | 0.00 | 18 | 1020.0 |
| 20260905155300 | 79 | 162 | 4.0 | 13.0 | 0.00 | 0.00 | 0.00 | 19 | 1019.9 |
| 20260905154258 | 78 | 137 | 5.0 | 15.0 | 0.00 | 0.00 | 0.00 | 20 | 1019.9 |
| 20260905153756 | 78 | 206 | 5.0 | 15.0 | 0.00 | 0.00 | 0.00 | 20 | 1019.9 |
| 20260905153300 | 78 | 163 | 4.0 | 11.0 | 0.00 | 0.00 | 0.00 | 19 | 1019.9 |
| 20260905152800 | 78 | 122 | 5.0 | 11.0 | 0.00 | 0.00 | 0.00 | 18 | 1019.9 |
| 20260905151242 | 77 | 167 | 5.0 | 15.0 | 0.00 | 0.00 | 0.00 | 17 | 1019.9 |
| 20260905150736 | 77 | 203 | 6.0 | 13.0 | 0.00 | 0.00 | 0.00 | 17 | 1020.0 |
| 20260905145724 | 76 | 179 | 6.0 | 14.0 | 0.00 | 0.00 | 0.00 | 16 | 1019.9 |
| 20260905144713 | 76 | 142 | 4.0 | 10.0 | 0.00 | 0.00 | 0.00 | 18 | 1019.9 |
| 20260905144212 | 76 | 138 | 5.0 | 12.0 | 0.00 | 0.00 | 0.00 | 18 | 1019.8 |
| 20260905143712 | 75 | 256 | 6.0 | 12.0 | 0.00 | 0.00 | 0.00 | 18 | 1019.7 |
| 20260905143214 | 75 | 180 | 5.0 | 12.0 | 0.00 | 0.00 | 0.00 | 17 | 1019.7 |
| 20260905142713 | 75 | 147 | 5.0 | 13.0 | 0.00 | 0.00 | 0.00 | 16 | 1019.6 |
| 20260905142213 | 75 | 204 | 5.0 | 13.0 | 0.00 | 0.00 | 0.00 | 15 | 1019.7 |
| 20260905141713 | 74 | 150 | 5.0 | 13.0 | 0.00 | 0.00 | 0.00 | 15 | 1019.6 |
| 20260905141212 | 74 | 184 | 5.0 | 14.0 | 0.00 | 0.00 | 0.00 | 15 | 1019.6 |
| 20260905140712 | 74 | 199 | 6.0 | 16.0 | 0.00 | 0.00 | 0.00 | 14 | 1019.4 |
| 20260905140214 | 73 | 160 | 6.0 | 16.0 | 0.00 | 0.00 | 0.00 | 13 | 1019.4 |
| 20260905135713 | 73 | 203 | 4.0 | 14.0 | 0.00 | 0.00 | 0.00 | 13 | 1019.4 |
| 20260905135212 | 72 | 179 | 3.0 | 14.0 | 0.00 | 0.00 | 0.00 | 14 | 1019.4 |
| 20260905134719 | 0 | 0.0 | 0.0 | 0.00 | 0.00 | 0.00 | 1019.4 | ||
| 20260905134215 | 0 | 0.0 | 0.0 | 0.00 | 0.00 | 0.00 | 1019.2 | ||
| 20260905133708 | 0 | 0.0 | 0.0 | 0.00 | 0.00 | 0.00 | 1019.1 | ||
| 20260905133121 | 0 | 0.0 | 0.0 | 0.00 | 0.00 | 0.00 | 1019.1 | ||
| 20260905132613 | 0 | 0.0 | 0.0 | 0.00 | 0.00 | 0.00 | 1019.1 | ||
| 20260905131010 | 0 | 0.0 | 0.0 | 0.00 | 0.00 | 0.00 | 1018.9 | ||
| 20260905130509 | 0 | 0.0 | 0.0 | 0.00 | 0.00 | 0.00 | 1019.0 | ||
| 20260905125915 | 0 | 0.0 | 0.0 | 0.00 | 0.00 | 0.00 | 1018.9 | ||
| 20260905125413 | 0 | 0.0 | 0.0 | 0.00 | 0.00 | 0.00 | 1018.9 | ||
| 20260905124913 | 0 | 0.0 | 0.0 | 0.00 | 0.00 | 0.00 | 1018.8 | ||
| 20260905124410 | 0 | 0.0 | 0.0 | 0.00 | 0.00 | 0.00 | 1018.6 | ||
| 20260905123311 | 0 | 0.0 | 0.0 | 0.00 | 0.00 | 0.00 | 1018.6 | ||
| 20260905122812 | 0 | 0.0 | 0.0 | 0.00 | 0.00 | 0.00 | 1018.5 | ||
| 20260905122306 | 0 | 0.0 | 0.0 | 0.00 | 0.00 | 0.00 | 1018.5 | ||
| 20260905121713 | 0 | 212 | 3.0 | 6.0 | 0.00 | 0.00 | 0.00 | 1018.5 | |
| 20260905121205 | 72 | 212 | 3.0 | 7.0 | 0.00 | 0.00 | 0.00 | 14 | 1018.4 |
| 20260905120656 | 72 | 212 | 3.0 | 12.0 | 0.00 | 0.00 | 0.00 | 14 | 1018.4 |
| 20260905120150 | 72 | 172 | 3.0 | 12.0 | 0.00 | 0.00 | 0.00 | 14 | 1018.5 |
| 20260905115644 | 73 | 193 | 3.0 | 8.0 | 0.00 | 0.00 | 0.00 | 14 | 1018.5 |
| 20260905115137 | 73 | 169 | 3.0 | 8.0 | 0.00 | 0.00 | 0.00 | 15 | 1018.5 |
| 20260905114631 | 73 | 207 | 3.0 | 11.0 | 0.00 | 0.00 | 0.00 | 15 | 1018.5 |
| 20260905114126 | 73 | 155 | 3.0 | 11.0 | 0.00 | 0.00 | 0.00 | 15 | 1018.5 |
| 20260905113619 | 73 | 156 | 3.0 | 8.0 | 0.00 | 0.00 | 0.00 | 16 | 1018.5 |
| 20260905113113 | 74 | 188 | 3.0 | 9.0 | 0.00 | 0.00 | 0.00 | 17 | 1018.4 |
| 20260905112607 | 74 | 185 | 4.0 | 12.0 | 0.00 | 0.00 | 0.00 | 16 | 1018.3 |
| 20260905112101 | 74 | 159 | 5.0 | 12.0 | 0.00 | 0.00 | 0.00 | 16 | 1018.4 |
| 20260905111556 | 74 | 133 | 4.0 | 15.0 | 0.00 | 0.00 | 0.00 | 16 | 1018.4 |
| 20260905111049 | 74 | 180 | 4.0 | 15.0 | 0.00 | 0.00 | 0.00 | 16 | 1018.3 |
| 20260905110542 | 74 | 136 | 4.0 | 10.0 | 0.00 | 0.00 | 0.00 | 16 | 1018.2 |
| 20260905110037 | 74 | 176 | 5.0 | 15.0 | 0.00 | 0.00 | 0.00 | 16 | 1018.2 |
| 20260905105531 | 74 | 105 | 5.0 | 15.0 | 0.00 | 0.00 | 0.00 | 16 | 1018.2 |
| 20260905105025 | 74 | 174 | 5.0 | 11.0 | 0.00 | 0.00 | 0.00 | 16 | 1018.2 |
| 20260905104519 | 74 | 169 | 4.0 | 11.0 | 0.00 | 0.00 | 0.00 | 16 | 1018.2 |
| 20260905104013 | 74 | 165 | 3.0 | 11.0 | 0.00 | 0.00 | 0.00 | 16 | 1018.2 |
| 20260905103507 | 74 | 128 | 3.0 | 10.0 | 0.00 | 0.00 | 0.00 | 17 | 1018.2 |
| 20260905103001 | 74 | 122 | 3.0 | 9.0 | 0.00 | 0.00 | 0.00 | 16 | 1018.3 |
| 20260905102455 | 74 | 207 | 3.0 | 11.0 | 0.00 | 0.00 | 0.00 | 15 | 1018.2 |
| 20260905101455 | 75 | 172 | 4.0 | 12.0 | 0.00 | 0.00 | 0.00 | 15 | 1018.3 |
| 20260905100958 | 75 | 210 | 4.0 | 12.0 | 0.00 | 0.00 | 0.00 | 13 | 1018.3 |
| 20260905100455 | 75 | 153 | 4.0 | 13.0 | 0.00 | 0.00 | 0.00 | 13 | 1018.3 |
| 20260905095951 | 75 | 152 | 5.0 | 13.0 | 0.00 | 0.00 | 0.00 | 13 | 1018.3 |
| 20260905095451 | 75 | 148 | 5.0 | 15.0 | 0.00 | 0.00 | 0.00 | 13 | 1018.2 |
| 20260905094951 | 75 | 207 | 5.0 | 15.0 | 0.00 | 0.00 | 0.00 | 13 | 1018.2 |
| 20260905094452 | 75 | 82 | 3.0 | 11.0 | 0.00 | 0.00 | 0.00 | 12 | 1018.3 |
| 20260905093448 | 75 | 256 | 4.0 | 12.0 | 0.00 | 0.00 | 0.00 | 13 | 1018.2 |
| 20260905092949 | 75 | 113 | 4.0 | 11.0 | 0.00 | 0.00 | 0.00 | 12 | 1018.1 |
| 20260905092449 | 74 | 140 | 4.0 | 11.0 | 0.00 | 0.00 | 0.00 | 13 | 1018.1 |
| 20260905091945 | 74 | 162 | 2.0 | 11.0 | 0.00 | 0.00 | 0.00 | 13 | 1018.2 |
| 20260905091446 | 74 | 153 | 3.0 | 10.0 | 0.00 | 0.00 | 0.00 | 11 | 1018.2 |
| 20260905090947 | 75 | 125 | 4.0 | 12.0 | 0.00 | 0.00 | 0.00 | 10 | 1018.1 |
| 20260905090446 | 75 | 98 | 4.0 | 12.0 | 0.00 | 0.00 | 0.00 | 12 | 1018.1 |
| 20260905085947 | 75 | 188 | 4.0 | 10.0 | 0.00 | 0.00 | 0.00 | 12 | 1018.1 |
| 20260905085445 | 75 | 195 | 4.0 | 12.0 | 0.00 | 0.00 | 0.00 | 12 | 1018.1 |
| 20260905084939 | 75 | 184 | 3.0 | 12.0 | 0.00 | 0.00 | 0.00 | 12 | 1018.1 |
| 20260905084434 | 75 | 195 | 2.0 | 8.0 | 0.00 | 0.00 | 0.00 | 11 | 1018.1 |
| 20260905083932 | 75 | 210 | 3.0 | 9.0 | 0.00 | 0.00 | 0.00 | 11 | 1018.1 |
| 20260905083431 | 75 | 120 | 5.0 | 14.0 | 0.00 | 0.00 | 0.00 | 11 | 1018.3 |
| 20260905082933 | 75 | 194 | 6.0 | 14.0 | 0.00 | 0.00 | 0.00 | 10 | 1018.3 |
| 20260905082432 | 75 | 153 | 6.0 | 14.0 | 0.00 | 0.00 | 0.00 | 10 | 1018.3 |
| 20260905081433 | 74 | 208 | 4.0 | 11.0 | 0.00 | 0.00 | 0.00 | 9 | 1018.4 |
| 20260905080932 | 74 | 160 | 4.0 | 14.0 | 0.00 | 0.00 | 0.00 | 9 | 1018.5 |
| 20260905080432 | 75 | 179 | 6.0 | 14.0 | 0.00 | 0.00 | 0.00 | 9 | 1018.4 |
| 20260905075933 | 74 | 156 | 5.0 | 13.0 | 0.00 | 0.00 | 0.00 | 9 | 1018.4 |
| 20260905075431 | 74 | 182 | 4.0 | 13.0 | 0.00 | 0.00 | 0.00 | 9 | 1018.4 |
| 20260905074933 | 74 | 190 | 4.0 | 11.0 | 0.00 | 0.00 | 0.00 | 9 | 1018.5 |
| 20260905074427 | 74 | 201 | 3.0 | 10.0 | 0.00 | 0.00 | 0.00 | 9 | 1018.5 |
| 20260905073928 | 74 | 195 | 4.0 | 12.0 | 0.00 | 0.00 | 0.00 | 9 | 1018.6 |
| 20260905073427 | 74 | 173 | 4.0 | 12.0 | 0.00 | 0.00 | 0.00 | 8 | 1018.5 |
| 20260905072927 | 74 | 172 | 2.0 | 9.0 | 0.00 | 0.00 | 0.00 | 8 | 1018.5 |
| 20260905072429 | 74 | 146 | 3.0 | 9.0 | 0.00 | 0.00 | 0.00 | 8 | 1018.5 |
| 20260905071928 | 74 | 214 | 5.0 | 12.0 | 0.00 | 0.00 | 0.00 | 8 | 1018.5 |
| 20260905070929 | 74 | 148 | 3.0 | 9.0 | 0.00 | 0.00 | 0.00 | 8 | 1018.5 |
| 20260905070429 | 74 | 217 | 3.0 | 7.0 | 0.00 | 0.00 | 0.00 | 8 | 1018.4 |
| 20260905065924 | 74 | 158 | 4.0 | 8.0 | 0.00 | 0.00 | 0.00 | 7 | 1018.4 |
| 20260905065424 | 74 | 185 | 4.0 | 8.0 | 0.00 | 0.00 | 0.00 | 7 | 1018.4 |
| 20260905064924 | 74 | 155 | 3.0 | 7.0 | 0.00 | 0.00 | 0.00 | 8 | 1018.3 |
| 20260905063925 | 74 | 151 | 2.0 | 8.0 | 0.00 | 0.00 | 0.00 | 7 | 1018.2 |
| 20260905063425 | 74 | 183 | 2.0 | 8.0 | 0.00 | 0.00 | 0.00 | 7 | 1018.2 |
| 20260905061925 | 75 | 216 | 5.0 | 12.0 | 0.00 | 0.00 | 0.00 | 6 | 1018.1 |
| 20260905060919 | 75 | 139 | 5.0 | 11.0 | 0.00 | 0.00 | 0.00 | 6 | 1018.0 |
| 20260905060421 | 75 | 215 | 5.0 | 11.0 | 0.00 | 0.00 | 0.00 | 6 | 1018.1 |
| 20260905055421 | 76 | 186 | 5.0 | 11.0 | 0.00 | 0.00 | 0.00 | 6 | 1018.0 |
| 20260905054919 | 76 | 226 | 4.0 | 11.0 | 0.00 | 0.00 | 0.00 | 6 | 1018.0 |
| 20260905054418 | 76 | 120 | 5.0 | 12.0 | 0.00 | 0.00 | 0.00 | 5 | 1017.8 |
| 20260905053918 | 76 | 182 | 6.0 | 12.0 | 0.00 | 0.00 | 0.00 | 5 | 1018.0 |
| 20260905053418 | 76 | 128 | 8.0 | 16.0 | 0.00 | 0.00 | 0.00 | 5 | 1017.8 |
| 20260905052918 | 77 | 235 | 8.0 | 19.0 | 0.00 | 0.00 | 0.00 | 5 | 1018.0 |
| 20260905052422 | 77 | 198 | 9.0 | 19.0 | 0.00 | 0.00 | 0.00 | 5 | 1017.8 |
| 20260905051921 | 77 | 219 | 9.0 | 19.0 | 0.00 | 0.00 | 0.00 | 5 | 1017.8 |
| 20260905051411 | 77 | 205 | 8.0 | 19.0 | 0.00 | 0.00 | 0.00 | 6 | 1017.7 |
| 20260905050910 | 77 | 140 | 8.0 | 19.0 | 0.00 | 0.00 | 0.00 | 5 | 1017.8 |
| 20260905045909 | 77 | 136 | 8.0 | 19.0 | 0.00 | 0.00 | 0.00 | 7 | 1017.7 |
| 20260905045408 | 77 | 151 | 8.0 | 18.0 | 0.00 | 0.00 | 0.00 | 7 | 1017.7 |
| 20260905044910 | 77 | 196 | 6.0 | 17.0 | 0.00 | 0.00 | 0.00 | 8 | 1017.7 |
| 20260905044407 | 77 | 252 | 6.0 | 17.0 | 0.00 | 0.00 | 0.00 | 9 | 1017.6 |
| 20260905043906 | 77 | 162 | 7.0 | 16.0 | 0.00 | 0.00 | 0.00 | 9 | 1017.6 |
| 20260905043406 | 77 | 180 | 8.0 | 16.0 | 0.00 | 0.00 | 0.00 | 10 | 1017.6 |
| 20260905042907 | 77 | 197 | 9.0 | 22.0 | 0.00 | 0.00 | 0.00 | 11 | 1017.6 |
| 20260905042407 | 77 | 202 | 8.0 | 22.0 | 0.00 | 0.00 | 0.00 | 12 | 1017.5 |
| 20260905041905 | 77 | 187 | 6.0 | 18.0 | 0.00 | 0.00 | 0.00 | 13 | 1017.5 |
| 20260905040906 | 77 | 198 | 5.0 | 12.0 | 0.00 | 0.00 | 0.00 | 16 | 1017.4 |
| 20260905040414 | 77 | 213 | 4.0 | 11.0 | 0.00 | 0.00 | 0.00 | 15 | 1017.4 |
| 20260905035908 | 77 | 180 | 4.0 | 14.0 | 0.00 | 0.00 | 0.00 | 15 | 1017.4 |
| 20260905035403 | 78 | 250 | 5.0 | 14.0 | 0.00 | 0.00 | 0.00 | 14 | 1017.3 |
| 20260905034900 | 77 | 103 | 4.0 | 13.0 | 0.00 | 0.00 | 0.00 | 15 | 1017.2 |
| 20260905033338 | 78 | 159 | 4.0 | 12.0 | 0.00 | 0.00 | 0.00 | 15 | 1017.0 |
| 20260905032833 | 78 | 60 | 5.0 | 14.0 | 0.00 | 0.00 | 0.00 | 15 | 1017.0 |
| 20260905032327 | 78 | 207 | 5.0 | 14.0 | 0.00 | 0.00 | 0.00 | 15 | 1017.0 |
| 20260905031821 | 78 | 240 | 6.0 | 17.0 | 0.00 | 0.00 | 0.00 | 15 | 1016.9 |
| 20260905031318 | 78 | 176 | 6.0 | 17.0 | 0.00 | 0.00 | 0.00 | 15 | 1016.8 |
| 20260905030809 | 78 | 163 | 5.0 | 12.0 | 0.00 | 0.00 | 0.00 | 16 | 1016.8 |
| 20260905025757 | 78 | 179 | 4.0 | 10.0 | 0.00 | 0.00 | 0.00 | 17 | 1016.6 |
| 20260905025251 | 78 | 225 | 4.0 | 12.0 | 0.00 | 0.00 | 0.00 | 17 | 1016.7 |
| 20260905024744 | 78 | 197 | 4.0 | 12.0 | 0.00 | 0.00 | 0.00 | 17 | 1016.6 |
| 20260905024239 | 79 | 149 | 4.0 | 12.0 | 0.00 | 0.00 | 0.00 | 17 | 1016.6 |
| 20260905023227 | 79 | 171 | 6.0 | 12.0 | 0.00 | 0.00 | 0.00 | 16 | 1016.6 |
| 20260905022721 | 79 | 153 | 5.0 | 11.0 | 0.00 | 0.00 | 0.00 | 16 | 1016.6 |
| 20260905021709 | 80 | 178 | 7.0 | 16.0 | 0.00 | 0.00 | 0.00 | 16 | 1016.6 |
| 20260905021203 | 80 | 199 | 7.0 | 16.0 | 0.00 | 0.00 | 0.00 | 15 | 1016.6 |
| 20260905020658 | 80 | 209 | 7.0 | 16.0 | 0.00 | 0.00 | 0.00 | 14 | 1016.5 |
| 20260905020151 | 80 | 193 | 7.0 | 17.0 | 0.00 | 0.00 | 0.00 | 14 | 1016.5 |
| 20260905015141 | 81 | 150 | 8.0 | 24.0 | 0.00 | 0.00 | 0.00 | 13 | 1016.6 |
| 20260905014633 | 81 | 133 | 7.0 | 21.0 | 0.00 | 0.00 | 0.00 | 13 | 1016.5 |
| 20260905014127 | 81 | 90 | 8.0 | 23.0 | 0.00 | 0.00 | 0.00 | 12 | 1016.5 |
| 20260905013621 | 81 | 195 | 8.0 | 23.0 | 0.00 | 0.00 | 0.00 | 12 | 1016.6 |
| 20260905013115 | 82 | 241 | 5.0 | 16.0 | 0.00 | 0.00 | 0.00 | 11 | 1016.6 |
| 20260905012609 | 82 | 312 | 5.0 | 14.0 | 0.00 | 0.00 | 0.00 | 11 | 1016.6 |
| 20260905012103 | 83 | 171 | 7.0 | 19.0 | 0.00 | 0.00 | 0.00 | 10 | 1016.6 |
| 20260905011557 | 84 | 231 | 8.0 | 21.0 | 0.00 | 0.00 | 0.00 | 10 | 1016.5 |
| 20260905011051 | 84 | 264 | 7.0 | 16.0 | 0.00 | 0.00 | 0.00 | 10 | 1016.5 |
| 20260905010545 | 85 | 248 | 7.0 | 18.0 | 0.00 | 0.00 | 0.00 | 11 | 1016.4 |
| 20260905005532 | 85 | 195 | 5.0 | 16.0 | 0.00 | 0.00 | 0.00 | 10 | 1016.4 |
| 20260905005027 | 85 | 247 | 6.0 | 14.0 | 0.00 | 0.00 | 0.00 | 11 | 1016.2 |
| 20260905004521 | 85 | 218 | 5.0 | 14.0 | 0.00 | 0.00 | 0.00 | 11 | 1016.2 |